TimeCST,TemperatureF,Dew PointF,Humidity,Sea Level PressureIn,VisibilityMPH,Wind Direction,Wind SpeedMPH,Gust SpeedMPH,PrecipitationIn,Events,Conditions,WindDirDegrees,DateUTC
12:15 AM,58.1,58.1,100,29.89,0.2,Calm,Calm,-,N/A,Fog,Fog,0,2012-12-07 06:15:00
12:35 AM,57.9,57.9,100,29.88,0.2,Calm,Calm,-,N/A,Fog,Fog,0,2012-12-07 06:35:00
12:55 AM,57.4,57.4,100,29.88,0.2,ENE,3.5,-,N/A,Fog,Fog,60,2012-12-07 06:55:00
1:15 AM,57.2,57.2,100,29.88,0.8,Calm,Calm,-,N/A,,Mostly Cloudy,0,2012-12-07 07:15:00
1:35 AM,57.4,57.4,100,29.88,0.8,Calm,Calm,-,N/A,,Mostly Cloudy,0,2012-12-07 07:35:00
1:55 AM,57.7,57.7,100,29.88,1.2,East,3.5,-,N/A,,Scattered Clouds,80,2012-12-07 07:55:00
2:15 AM,57.6,57.6,100,29.88,1.8,Calm,Calm,-,N/A,,Mist,0,2012-12-07 08:15:00
2:35 AM,57.6,57.6,100,29.87,0.5,East,3.5,-,N/A,Fog,Fog,100,2012-12-07 08:35:00
2:55 AM,57.4,57.4,100,29.87,1.0,East,3.5,-,N/A,,Mist,100,2012-12-07 08:55:00
3:15 AM,57.2,57.2,100,29.87,1.0,Calm,Calm,-,N/A,,Mist,0,2012-12-07 09:15:00
3:35 AM,57.2,57.2,100,29.86,0.8,Calm,Calm,-,N/A,,Mist,0,2012-12-07 09:35:00
3:55 AM,56.8,56.8,100,29.86,0.2,Calm,Calm,-,N/A,Fog,Fog,0,2012-12-07 09:55:00
4:15 AM,55.9,55.9,100,29.86,0.2,Calm,Calm,-,N/A,Fog,Fog,0,2012-12-07 10:15:00
4:35 AM,55.4,55.4,100,29.86,0.2,Calm,Calm,-,N/A,Fog,Fog,0,2012-12-07 10:35:00
4:55 AM,55.6,55.6,100,29.86,0.8,East,3.5,-,0.01,,Mostly Cloudy,80,2012-12-07 10:55:00
5:15 AM,56.3,56.3,100,29.85,0.5,Calm,Calm,-,N/A,Fog,Fog,0,2012-12-07 11:15:00
5:35 AM,56.1,56.1,100,29.86,0.5,Calm,Calm,-,N/A,Fog,Fog,0,2012-12-07 11:35:00
5:55 AM,56.1,56.1,100,29.86,0.2,Calm,Calm,-,N/A,Fog,Fog,0,2012-12-07 11:55:00
6:15 AM,55.9,55.9,100,29.87,0.5,ENE,3.5,-,N/A,Fog,Fog,60,2012-12-07 12:15:00
6:35 AM,55.9,55.9,100,29.87,0.5,Calm,Calm,-,N/A,Fog,Fog,0,2012-12-07 12:35:00
6:55 AM,57.0,57.0,100,29.88,0.5,Calm,Calm,-,N/A,Fog,Fog,0,2012-12-07 12:55:00
7:15 AM,56.8,56.8,100,29.88,0.5,Calm,Calm,-,N/A,Fog,Fog,0,2012-12-07 13:15:00
7:35 AM,57.9,57.9,100,29.88,1.2,East,3.5,-,N/A,,Scattered Clouds,80,2012-12-07 13:35:00
7:55 AM,59.9,59.9,100,29.88,5.0,East,3.5,-,N/A,,Scattered Clouds,90,2012-12-07 13:55:00
8:15 AM,62.2,62.2,100,29.89,7.0,Calm,Calm,-,N/A,,Scattered Clouds,0,2012-12-07 14:15:00
8:35 AM,66.2,66.2,100,29.89,10.0,ESE,3.5,-,N/A,,Clear,120,2012-12-07 14:35:00
8:55 AM,68.4,68.4,100,29.89,10.0,ESE,3.5,-,N/A,,Clear,120,2012-12-07 14:55:00
9:15 AM,69.6,69.6,100,29.89,10.0,SE,3.5,-,N/A,,Clear,130,2012-12-07 15:15:00
9:35 AM,70.9,70.9,100,29.90,10.0,SE,4.6,-,N/A,,Clear,130,2012-12-07 15:35:00
9:55 AM,72.5,72.5,100,29.91,10.0,SSE,5.8,-,N/A,,Clear,150,2012-12-07 15:55:00
10:15 AM,75.4,74.7,98,29.91,10.0,SSE,8.1,-,N/A,,Scattered Clouds,150,2012-12-07 16:15:00
10:35 AM,77.5,73.6,88,29.91,10.0,South,10.4,-,N/A,,Scattered Clouds,170,2012-12-07 16:35:00
10:55 AM,78.1,69.4,75,29.90,10.0,SSE,8.1,-,N/A,,Mostly Cloudy,160,2012-12-07 16:55:00
11:15 AM,78.3,68.2,71,29.90,10.0,South,11.5,-,N/A,,Overcast,170,2012-12-07 17:15:00
11:35 AM,79.5,68.0,68,29.89,10.0,South,13.8,-,N/A,,Scattered Clouds,170,2012-12-07 17:35:00
11:55 AM,80.8,67.6,64,29.88,10.0,SSE,12.7,16.1,N/A,,Scattered Clouds,160,2012-12-07 17:55:00
12:15 PM,81.9,67.1,61,29.87,10.0,South,11.5,-,N/A,,Scattered Clouds,170,2012-12-07 18:15:00
12:35 PM,80.8,66.7,62,29.86,10.0,South,10.4,17.3,N/A,,Scattered Clouds,170,2012-12-07 18:35:00
12:55 PM,80.6,66.4,62,29.85,10.0,South,9.2,-,N/A,,Mostly Cloudy,180,2012-12-07 18:55:00
1:15 PM,81.3,66.6,61,29.84,10.0,South,8.1,-,N/A,,Mostly Cloudy,170,2012-12-07 19:15:00
1:35 PM,80.4,66.2,62,29.83,10.0,SSE,11.5,-,N/A,,Mostly Cloudy,150,2012-12-07 19:35:00
1:55 PM,81.7,65.7,58,29.82,10.0,SSE,6.9,-,N/A,,Scattered Clouds,160,2012-12-07 19:55:00
2:15 PM,81.0,65.5,59,29.81,10.0,SSE,8.1,17.3,N/A,,Scattered Clouds,160,2012-12-07 20:15:00
2:35 PM,81.1,65.8,60,29.81,10.0,SSE,9.2,-,N/A,,Mostly Cloudy,160,2012-12-07 20:35:00
2:55 PM,81.0,65.5,59,29.81,10.0,South,10.4,-,N/A,,Mostly Cloudy,180,2012-12-07 20:55:00
3:15 PM,82.2,65.8,57,29.81,10.0,South,10.4,-,N/A,,Mostly Cloudy,170,2012-12-07 21:15:00
3:35 PM,81.3,65.8,59,29.81,10.0,SSW,6.9,-,N/A,,Mostly Cloudy,200,2012-12-07 21:35:00
3:55 PM,79.2,66.2,64,29.81,10.0,SSE,8.1,-,N/A,,Mostly Cloudy,150,2012-12-07 21:55:00
4:15 PM,79.3,66.6,65,29.82,10.0,South,8.1,-,N/A,,Overcast,170,2012-12-07 22:15:00
4:35 PM,78.1,66.7,68,29.82,10.0,SSE,8.1,-,N/A,,Overcast,160,2012-12-07 22:35:00
4:55 PM,77.4,66.6,69,29.82,10.0,SSE,6.9,-,N/A,,Mostly Cloudy,160,2012-12-07 22:55:00
5:15 PM,75.9,66.7,73,29.83,10.0,SSE,5.8,-,N/A,,Mostly Cloudy,150,2012-12-07 23:15:00
5:35 PM,74.1,66.9,78,29.83,10.0,SE,4.6,-,N/A,,Scattered Clouds,140,2012-12-07 23:35:00
5:55 PM,72.5,66.7,82,29.83,10.0,SE,3.5,-,N/A,,Scattered Clouds,140,2012-12-07 23:55:00
6:15 PM,71.6,67.1,86,29.83,10.0,ESE,5.8,-,N/A,,Scattered Clouds,120,2012-12-08 00:15:00
6:35 PM,71.2,70.2,96,29.83,10.0,ESE,4.6,-,N/A,,Mostly Cloudy,120,2012-12-08 00:35:00
6:55 PM,72.0,72.0,100,29.84,10.0,Calm,Calm,-,N/A,,Overcast,0,2012-12-08 00:55:00
7:15 PM,71.8,71.8,100,29.84,10.0,ESE,3.5,-,N/A,,Overcast,110,2012-12-08 01:15:00
7:35 PM,71.1,71.1,100,29.84,10.0,SE,4.6,-,N/A,,Overcast,130,2012-12-08 01:35:00
7:55 PM,70.7,70.7,100,29.84,10.0,ESE,3.5,-,N/A,,Scattered Clouds,120,2012-12-08 01:55:00
8:15 PM,69.6,69.6,100,29.85,10.0,ESE,4.6,-,N/A,,Scattered Clouds,120,2012-12-08 02:15:00
8:35 PM,68.7,68.7,100,29.85,10.0,ESE,3.5,-,N/A,,Scattered Clouds,120,2012-12-08 02:35:00
8:55 PM,68.4,68.4,100,29.86,10.0,Calm,Calm,-,N/A,,Scattered Clouds,0,2012-12-08 02:55:00
9:15 PM,67.5,67.5,100,29.86,3.0,ESE,3.5,-,N/A,,Scattered Clouds,110,2012-12-08 03:15:00
9:35 PM,66.4,66.4,100,29.85,7.0,ESE,4.6,-,N/A,,Clear,120,2012-12-08 03:35:00
9:55 PM,66.0,66.0,100,29.86,5.0,Calm,Calm,-,N/A,,Clear,0,2012-12-08 03:55:00
10:15 PM,66.6,66.6,100,29.86,0.8,Calm,Calm,-,N/A,,Mist,0,2012-12-08 04:15:00
10:35 PM,66.0,66.0,100,29.87,0.5,Calm,Calm,-,N/A,Fog,Fog,0,2012-12-08 04:35:00
10:55 PM,65.7,65.7,100,29.86,0.5,Calm,Calm,-,N/A,Fog,Fog,0,2012-12-08 04:55:00
11:15 PM,65.1,65.1,100,29.86,0.5,SE,4.6,-,N/A,Fog,Fog,140,2012-12-08 05:15:00
11:35 PM,65.1,65.1,100,29.86,1.0,Calm,Calm,-,N/A,,Mostly Cloudy,0,2012-12-08 05:35:00
11:55 PM,65.1,65.1,100,29.86,0.8,ESE,4.6,-,N/A,,Mostly Cloudy,110,2012-12-08 05:55:00